When you browse on this site, cookies collect data to enhance your experience and personalize the content and advertising you see.
Visit our Privacy Policy to learn more. By continuing to use the site, you agree to this use of cookies and data.
  • In Lithuania
  • List of Countries
  • For 7 days
  • Water Temperature
  • Satellite Maps
  • Weather Map
  • Weather Widgets
  • user-avatar
    Login

    Hourly Weather Udong

    Today, 21 May, Tuesday

    Time Temperature Precipitation Wind Pressure Humidity
    00:00 +33°C° 0 mm 4 mps 754 mmHg 68%
    01:00 +31°C° 0 mm 3 mps 754 mmHg 70%
    02:00 +31°C° 0 mm 3 mps 754 mmHg 71%
    03:00 +31°C° 0 mm 3 mps 754 mmHg 73%
    04:00 +30°C° 0 mm 3 mps 753 mmHg 74%
    05:00 +31°C° 0 mm 3 mps 754 mmHg 73%
    06:00 +31°C° 0 mm 3 mps 754 mmHg 71%
    07:00 +32°C° 0 mm 2 mps 755 mmHg 68%
    08:00 +34°C° 0 mm 3 mps 755 mmHg 60%
    09:00 +36°C° 0 mm 3 mps 755 mmHg 53%
    10:00 +38°C° 0 mm 3 mps 755 mmHg 45%
    11:00 +39°C° 0 mm 3 mps 754 mmHg 42%
    12:00 +39°C° 0 mm 2 mps 754 mmHg 39%
    13:00 +41°C° 0 mm 2 mps 753 mmHg 35%
    14:00 +40°C° 0.1 mm 2 mps 753 mmHg 38%
    15:00 +40°C° 0.1 mm 3 mps 753 mmHg 40%
    16:00 +39°C° 0.1 mm 3 mps 752 mmHg 43%
    17:00 +38°C° 0 mm 3 mps 752 mmHg 47%
    18:00 +37°C° 0 mm 3 mps 752 mmHg 50%
    19:00 +36°C° 0 mm 4 mps 753 mmHg 54%
    20:00 +34°C° 1.3 mm 3 mps 753 mmHg 61%
    21:00 +33°C° 1.3 mm 3 mps 754 mmHg 67%
    22:00 +30°C° 1.3 mm 2 mps 754 mmHg 74%
    23:00 +30°C° 0 mm 2 mps 754 mmHg 75%

    Tomorrow, 22 May, Wednesday

    Time Temperature Precipitation Wind Pressure Humidity
    00:00 +30°C° 0 mm 2 mps 754 mmHg 76%
    01:00 +30°C° 0 mm 2 mps 754 mmHg 76%
    02:00 +30°C° 0 mm 2 mps 754 mmHg 77%
    03:00 +30°C° 0 mm 1 mps 754 mmHg 78%
    04:00 +30°C° 0 mm 1 mps 753 mmHg 79%
    05:00 +30°C° 0 mm 1 mps 753 mmHg 77%
    06:00 +30°C° 0 mm 2 mps 754 mmHg 75%
    07:00 +31°C° 0 mm 2 mps 754 mmHg 74%
    08:00 +33°C° 0 mm 3 mps 754 mmHg 65%
    09:00 +35°C° 0 mm 3 mps 754 mmHg 57%
    10:00 +37°C° 0 mm 4 mps 755 mmHg 48%
    11:00 +38°C° 0 mm 4 mps 754 mmHg 45%
    12:00 +39°C° 0 mm 3 mps 754 mmHg 41%
    13:00 +40°C° 0 mm 3 mps 754 mmHg 38%
    14:00 +40°C° 0 mm 3 mps 753 mmHg 39%
    15:00 +40°C° 0 mm 4 mps 753 mmHg 40%
    16:00 +40°C° 0 mm 4 mps 752 mmHg 42%
    17:00 +37°C° 0.2 mm 3 mps 753 mmHg 48%
    18:00 +36°C° 0.2 mm 3 mps 753 mmHg 53%
    19:00 +34°C° 0.2 mm 3 mps 753 mmHg 59%
    20:00 +34°C° 0.4 mm 3 mps 754 mmHg 62%
    21:00 +33°C° 0.4 mm 4 mps 754 mmHg 65%
    22:00 +32°C° 0.4 mm 4 mps 755 mmHg 68%
    23:00 +32°C° 0 mm 4 mps 755 mmHg 69%

    Day after tomorrow, 23 May, Thursday

    Time Temperature Precipitation Wind Pressure Humidity
    00:00 +30°C° 0 mm 3 mps 755 mmHg 70%
    01:00 +30°C° 0 mm 3 mps 755 mmHg 71%
    02:00 +30°C° 0 mm 3 mps 754 mmHg 72%
    03:00 +30°C° 0 mm 2 mps 754 mmHg 73%
    04:00 +30°C° 0 mm 2 mps 753 mmHg 74%
    05:00 +30°C° 0 mm 2 mps 754 mmHg 74%
    06:00 +30°C° 0 mm 2 mps 754 mmHg 73%
    07:00 +30°C° 0 mm 2 mps 755 mmHg 72%
    08:00 +33°C° 0 mm 3 mps 755 mmHg 65%
    09:00 +35°C° 0 mm 3 mps 755 mmHg 57%
    10:00 +37°C° 0 mm 3 mps 756 mmHg 49%
    11:00 +38°C° 0 mm 3 mps 755 mmHg 46%
    12:00 +39°C° 0 mm 3 mps 755 mmHg 42%
    13:00 +40°C° 0 mm 3 mps 754 mmHg 38%
    14:00 +39°C° 0 mm 3 mps 754 mmHg 42%
    15:00 +38°C° 0 mm 4 mps 753 mmHg 45%
    16:00 +37°C° 0 mm 4 mps 753 mmHg 48%
    17:00 +36°C° 0.1 mm 4 mps 753 mmHg 53%
    18:00 +35°C° 0.1 mm 5 mps 753 mmHg 57%
    19:00 +33°C° 0.1 mm 5 mps 754 mmHg 62%
    20:00 +33°C° 0.5 mm 4 mps 754 mmHg 64%
    21:00 +32°C° 0.5 mm 4 mps 755 mmHg 66%
    22:00 +31°C° 0.5 mm 3 mps 756 mmHg 69%
    23:00 +30°C° 0 mm 3 mps 755 mmHg 70%

    24 May, Friday

    Time Temperature Precipitation Wind Pressure Humidity
    00:00 +30°C° 0 mm 3 mps 755 mmHg 71%
    01:00 +30°C° 0 mm 3 mps 755 mmHg 72%
    02:00 +29°C° 0 mm 3 mps 754 mmHg 74%
    03:00 +29°C° 0 mm 3 mps 754 mmHg 75%
    04:00 +29°C° 0 mm 2 mps 754 mmHg 77%
    05:00 +29°C° 0 mm 2 mps 754 mmHg 75%
    06:00 +30°C° 0 mm 2 mps 755 mmHg 74%
    07:00 +30°C° 0 mm 3 mps 755 mmHg 72%
    08:00 +33°C° 0 mm 3 mps 756 mmHg 65%
    09:00 +35°C° 0 mm 2 mps 756 mmHg 57%
    10:00 +37°C° 0 mm 2 mps 756 mmHg 50%
    11:00 +38°C° 0 mm 2 mps 756 mmHg 46%
    12:00 +39°C° 0 mm 2 mps 755 mmHg 43%
    13:00 +40°C° 0 mm 2 mps 754 mmHg 40%
    14:00 +39°C° 0 mm 2 mps 754 mmHg 43%
    15:00 +38°C° 0 mm 3 mps 753 mmHg 46%
    16:00 +37°C° 0 mm 3 mps 752 mmHg 49%
    17:00 +36°C° 0 mm 3 mps 753 mmHg 52%
    18:00 +35°C° 0 mm 4 mps 753 mmHg 56%
    19:00 +34°C° 0 mm 4 mps 754 mmHg 59%
    20:00 +33°C° 0.7 mm 4 mps 754 mmHg 63%
    21:00 +31°C° 0.7 mm 3 mps 755 mmHg 68%
    22:00 +30°C° 0.7 mm 3 mps 755 mmHg 72%
    23:00 +30°C° 0.1 mm 3 mps 755 mmHg 73%

    25 May, Saturday

    Time Temperature Precipitation Wind Pressure Humidity
    00:00 +30°C° 0.1 mm 3 mps 754 mmHg 73%
    01:00 +30°C° 0.1 mm 3 mps 753 mmHg 74%
    02:00 +29°C° 0 mm 3 mps 753 mmHg 74%
    03:00 +29°C° 0 mm 3 mps 753 mmHg 74%
    04:00 +29°C° 0 mm 3 mps 753 mmHg 74%
    05:00 +29°C° 0 mm 4 mps 753 mmHg 74%
    06:00 +30°C° 0 mm 4 mps 754 mmHg 73%
    07:00 +30°C° 0 mm 4 mps 754 mmHg 72%
    08:00 +33°C° 0 mm 4 mps 754 mmHg 65%
    09:00 +35°C° 0 mm 5 mps 755 mmHg 57%
    10:00 +37°C° 0 mm 5 mps 755 mmHg 49%
    11:00 +38°C° 0 mm 4 mps 754 mmHg 46%
    12:00 +40°C° 0 mm 4 mps 753 mmHg 43%
    13:00 +40°C° 0 mm 4 mps 752 mmHg 40%
    14:00 +40°C° 0 mm 4 mps 752 mmHg 41%
    15:00 +40°C° 0 mm 4 mps 752 mmHg 42%
    16:00 +38°C° 0 mm 4 mps 751 mmHg 44%
    17:00 +37°C° 0 mm 4 mps 752 mmHg 48%
    18:00 +36°C° 0 mm 4 mps 752 mmHg 52%
    19:00 +35°C° 0 mm 5 mps 753 mmHg 56%
    20:00 +34°C° 0.2 mm 5 mps 753 mmHg 60%
    21:00 +33°C° 0.2 mm 5 mps 753 mmHg 65%
    22:00 +32°C° 0.2 mm 5 mps 754 mmHg 69%
    23:00 +30°C° 0 mm 5 mps 753 mmHg 71%

    26 May, Sunday

    Time Temperature Precipitation Wind Pressure Humidity
    00:00 +30°C° 0 mm 5 mps 753 mmHg 72%
    01:00 +30°C° 0 mm 5 mps 752 mmHg 73%
    02:00 +30°C° 0 mm 5 mps 752 mmHg 74%
    03:00 +29°C° 0 mm 4 mps 752 mmHg 75%
    04:00 +29°C° 0 mm 4 mps 752 mmHg 77%
    05:00 +30°C° 0 mm 5 mps 752 mmHg 75%
    06:00 +30°C° 0 mm 5 mps 753 mmHg 74%
    07:00 +30°C° 0 mm 5 mps 754 mmHg 72%
    08:00 +33°C° 0 mm 5 mps 754 mmHg 64%
    09:00 +35°C° 0 mm 5 mps 754 mmHg 57%
    10:00 +37°C° 0 mm 4 mps 754 mmHg 49%
    11:00 +37°C° 0 mm 4 mps 753 mmHg 47%
    12:00 +38°C° 0 mm 4 mps 753 mmHg 46%
    13:00 +38°C° 0 mm 4 mps 752 mmHg 44%
    14:00 +39°C° 0 mm 5 mps 752 mmHg 45%
    15:00 +39°C° 0 mm 5 mps 751 mmHg 45%
    16:00 +39°C° 0 mm 5 mps 751 mmHg 45%
    17:00 +36°C° 0 mm 5 mps 752 mmHg 51%
    18:00 +34°C° 0 mm 5 mps 752 mmHg 58%
    19:00 +33°C° 0 mm 6 mps 753 mmHg 64%
    20:00 +32°C° 0 mm 6 mps 753 mmHg 66%
    21:00 +32°C° 0 mm 6 mps 753 mmHg 68%
    22:00 +32°C° 0 mm 6 mps 753 mmHg 70%
    23:00 +30°C° 0 mm 5 mps 753 mmHg 71%
    Show more